This is the latest recevied weather packets stored in our database for station/object WA4OPQ-1. If no packets are shown the sender has not sent any weather packets the latest 10 day(s).
| Time | Temp. | Humidity | Pressure | Rain* | Wind** | Luminosity | Snow |
|---|---|---|---|---|---|---|---|
| 1787671639 | 26.67° C | 69% | 1015.8 hPa | 0 mm | 0.45 m/s, 326° | 772 W/m² | - |
| 1787671119 | 26.11° C | 72% | 1015.9 hPa | 0 mm | 0 m/s | 786 W/m² | - |
| 1787670584 | 25.56° C | 74% | 1016 hPa | 0 mm | 0 m/s | 384 W/m² | - |
| 1787670087 | 25.56° C | 76% | 1015.9 hPa | 0 mm | 0 m/s | 155 W/m² | - |
| 1787669519 | 24.44° C | 76% | 1015.9 hPa | 0 mm | 0 m/s | 247 W/m² | - |
| 1787668954 | 24.44° C | 78% | 1016.3 hPa | 0 mm | 0.45 m/s, 311° | 53 W/m² | - |
| 1787668414 | 23.33° C | 82% | 1016.3 hPa | 0 mm | 0 m/s | 194 W/m² | - |
| 1787667829 | 22.78° C | 84% | 1016.3 hPa | 0 mm | 0.45 m/s, 325° | 125 W/m² | - |
| 1787667239 | 22.78° C | 82% | 1016.4 hPa | 0 mm | 0 m/s | 127 W/m² | - |
| 1787666727 | 22.78° C | 82% | 1016.5 hPa | 0 mm | 0 m/s | 133 W/m² | - |
| 1787666139 | 22.22° C | 83% | 1016.5 hPa | 0 mm | 0 m/s | 138 W/m² | - |
| 1787665539 | 22.22° C | 83% | 1016.4 hPa | 0 mm | 0 m/s | 122 W/m² | - |
| 1787664979 | 22.22° C | 84% | 1016.5 hPa | 0 mm | 0 m/s | 134 W/m² | - |
| 1787664489 | 21.67° C | 83% | 1016.5 hPa | 0 mm | 0 m/s | 102 W/m² | - |
| 1787663906 | 21.11° C | 88% | 1016.6 hPa | 0 mm | 0 m/s | 104 W/m² | - |
| 1787663352 | 20.56° C | 88% | 1016.8 hPa | 0 mm | 0 m/s | 95 W/m² | - |
| 1787662869 | 20.56° C | 88% | 1016.7 hPa | 0 mm | 0 m/s | 87 W/m² | - |
| 1787662339 | 20.56° C | 86% | 1016.7 hPa | 0 mm | 0 m/s | 65 W/m² | - |
| 1787661801 | 20° C | 87% | 1016.7 hPa | 0 mm | 0 m/s | 58 W/m² | - |
| 1787661267 | 20° C | 88% | 1016.9 hPa | 0 mm | 0 m/s | 61 W/m² | - |
| 1787660679 | 19.44° C | 90% | 1016.8 hPa | 0 mm | 0 m/s | 45 W/m² | - |
| 1787660159 | 19.44° C | 89% | 1016.8 hPa | 0 mm | 0 m/s | 28 W/m² | - |
| 1787659579 | 19.44° C | 90% | 1017 hPa | 0 mm | 0 m/s | 13 W/m² | - |
| 1787659039 | 18.89° C | 90% | 1016.4 hPa | 0 mm | 0 m/s | 15 W/m² | - |
| 1787658524 | 18.89° C | 90% | 1016.3 hPa | 0 mm | 0 m/s | 13 W/m² | - |
* Rain latest hour (hover to see other rain measurements)
** Current wind speed in m/s (hover to see current wind gust speed)